INTELSAT 22 (IS-22)

Last updated on Thu Nov 21 2024 00:02:42 GMT+0000 (Coordinated Universal Time)

1 38098U 12011A 24325.20049228 -.00000058 00000+0 00000+0 0 9998 2 38098 0.0043 20.2820 0001954 225.9260 317.8149 1.00271386 1435
UTC large
Height (km)
Speed (km/s)
/
Latitude / Longitude
Inclination (degrees)
Orbital Period (minutes)
Azimuth
Elevation
Range (km)
Doppler Factor

Next 0 passes for location: London (51.5072 / 0.1276)

Sorry there are no passes over London.